TimeAKST,TemperatureF,Dew PointF,Humidity,Sea Level PressureIn,VisibilityMPH,Wind Direction,Wind SpeedMPH,Gust SpeedMPH,PrecipitationIn,Events,Conditions,WindDirDegrees,DateUTC
12:01 AM,-4.0,-7.1,87,30.38,10.0,East,3.5,-,N/A,,Clear,80,2013-03-03 09:01:00
1:01 AM,-2.0,-7.1,79,30.39,10.0,Variable,3.5,-,N/A,,Clear,0,2013-03-03 10:01:00
2:01 AM,-0.0,-6.0,76,30.39,10.0,East,4.6,-,N/A,,Clear,90,2013-03-03 11:01:00
3:01 AM,-0.0,-5.1,79,30.39,10.0,East,9.2,-,N/A,,Clear,90,2013-03-03 12:01:00
4:01 AM,-0.0,-4.0,83,30.38,10.0,East,11.5,-,N/A,,Clear,90,2013-03-03 13:01:00
5:01 AM,-0.0,-6.0,76,30.39,10.0,Variable,3.5,-,N/A,,Clear,0,2013-03-03 14:01:00
6:01 AM,-0.0,-4.0,83,30.39,10.0,Variable,3.5,-,N/A,,Clear,0,2013-03-03 15:01:00
7:01 AM,1.0,-4.0,79,30.38,10.0,East,15.0,20.7,N/A,,Clear,100,2013-03-03 16:01:00
8:01 AM,1.0,-4.0,79,30.39,10.0,NE,4.6,-,N/A,,Clear,50,2013-03-03 17:01:00
9:01 AM,6.1,-0.0,76,30.38,10.0,East,11.5,-,N/A,,Clear,80,2013-03-03 18:01:00
10:01 AM,5.0,-0.9,76,30.39,10.0,Calm,Calm,-,N/A,,Clear,0,2013-03-03 19:01:00
11:01 AM,7.0,-0.0,73,30.41,10.0,Variable,6.9,-,N/A,,Clear,0,2013-03-03 20:01:00
12:01 PM,9.0,1.0,70,30.40,10.0,East,13.8,21.9,N/A,,Clear,100,2013-03-03 21:01:00
1:01 PM,12.9,3.0,65,30.39,10.0,ESE,11.5,19.6,N/A,,Clear,120,2013-03-03 22:01:00
2:01 PM,15.1,3.9,61,30.41,10.0,Variable,6.9,17.3,N/A,,Clear,0,2013-03-03 23:01:00
3:01 PM,16.0,5.0,62,30.41,10.0,East,9.2,-,N/A,,Clear,90,2013-03-04 00:01:00
4:01 PM,16.0,6.1,65,30.41,10.0,East,10.4,16.1,N/A,,Mostly Cloudy,100,2013-03-04 01:01:00
5:01 PM,18.0,7.0,62,30.42,10.0,East,12.7,20.7,N/A,,Overcast,90,2013-03-04 02:01:00
6:01 PM,18.0,8.1,65,30.40,10.0,East,12.7,20.7,N/A,,Overcast,100,2013-03-04 03:01:00
7:01 PM,18.0,8.1,65,30.42,10.0,East,11.5,19.6,N/A,,Overcast,90,2013-03-04 04:01:00
8:01 PM,17.1,8.1,68,30.43,10.0,East,13.8,18.4,N/A,,Overcast,80,2013-03-04 05:01:00
9:01 PM,17.1,8.1,68,30.44,10.0,East,15.0,21.9,N/A,,Overcast,90,2013-03-04 06:01:00
10:01 PM,17.1,8.1,68,30.45,10.0,East,13.8,19.6,N/A,,Overcast,80,2013-03-04 07:01:00
11:01 PM,18.0,8.1,65,30.46,10.0,East,13.8,19.6,N/A,,Overcast,90,2013-03-04 08:01:00